Location: Putman Mountain Observatory
(30.5430°N, 98.9075°W)
Time: 15:56:52
(UTC-06:00)

Hubble Space Telescope - Visible Passes

Search period start: 19 January 2026 00:00
Search period end: 29 January 2026 00:00
Orbit: 479 x 481 km, 28.5° (Epoch: 19 January)

Date Brightness Start Highest point End Pass type
(mag) Time Alt. Az. Time Alt. Az. Time Alt. Az.
19 Jan 3.0 19:32:42 10° S 19:33:38 11° SSE 19:33:38 11° SSE visible
20 Jan 2.9 19:02:53 10° S 19:04:08 11° SSE 19:05:22 10° SE visible
21 Jan 3.0 18:33:04 10° S 18:34:21 11° SSE 18:35:39 10° SE visible
21 Jan 2.8 20:10:17 10° SW 20:11:51 21° SW 20:11:51 21° SW visible
22 Jan 1.5 19:40:30 10° SW 19:43:50 35° S 19:43:50 35° S visible
23 Jan 1.6 19:10:41 10° SW 19:14:09 35° SSE 19:15:47 23° ESE visible
24 Jan 1.6 18:40:52 10° SW 18:44:20 35° SSE 18:47:42 11° E visible
24 Jan 2.9 20:20:15 10° WSW 20:21:50 23° WSW 20:21:50 23° WSW visible
25 Jan 1.0 19:50:25 10° WSW 19:53:44 57° SSW 19:53:44 57° SSW visible
26 Jan 0.7 19:20:34 10° WSW 19:24:18 63° S 19:25:38 36° ESE visible
27 Jan 0.8 18:50:43 10° WSW 18:54:26 63° S 18:57:32 14° E visible
27 Jan 3.2 20:30:30 10° W 20:31:40 18° W 20:31:40 18° W visible
28 Jan 1.6 20:00:37 10° W 20:03:35 42° SW 20:03:35 42° SW visible
